Laconia, NH

11:06 PM EST on November 13, 2019 (GMT -0500)
Laconia Municipal

Weather History for KLCI - September, 2019

Change the Weather History Date:

Thursday, September 19, 2019

  Actual Average Record
Temperature  
Mean Temperature 53 °F -  
Max Temperature 69 °F 70 °F 85 °F (1992)
Min Temperature 37 °F 49 °F 33 °F (2014)
Degree Days  
Heating Degree Days 12    
Growing Degree Days 3 (Base 50)    
Moisture  
Dew Point 41 °F    
Average Humidity 84    
Maximum Humidity 100    
Minimum Humidity 32    
Precipitation  
Precipitation 0.00 in - - ()
Sea Level Pressure  
Sea Level Pressure 30.34 in    
Wind  
Wind Speed 1 mph ()    
Max Wind Speed 6 mph    
Max Gust Speed -    
Visibility 7.4 miles    
Events Fog , Rain    
Averages and records for this station are not official NWS values.
T = Trace of Precipitation, MM = Missing Value Source: Averaged Metar Reports

Daily Weather History Graph

Daily Weather History Graph

Search for Another Location

Airport or City:

Astronomy

Sep. 19, 2019 Rise Set
Actual Time 6:29 AM EDT 6:49 PM EDT
Civil Twilight 6:00 AM EDT 7:17 PM EDT
Nautical Twilight 5:26 AM EDT 7:51 PM EDT
Astronomical Twilight 4:52 AM EDT 8:25 PM EDT
Moon 9:46 PM EDT (9/19) 11:38 AM EDT (9/19)
Length of Visible Light 13h 17m
Length of Day
12h 19m
Waning Gibbous, 74% of the Moon is Illuminated
Sep 19
Waning Gibbous
Sep 21
Last Quarter
Sep 28
New
Oct 5
First Quarter
Oct 13
Full

Hourly Weather History & Observations

Time (EDT) Temp. Windchill Dew Point Humidity Pressure Visibility Wind Dir Wind Speed Gust Speed Precip Events Conditions
12:56 AM 42.1 °F - 39.9 °F 92% 30.38 in 10.0 mi Calm Calm - N/A   Clear
1:56 AM 39.9 °F - 39.0 °F 97% 30.37 in 10.0 mi Calm Calm - N/A   Clear
2:56 AM 37.9 °F - 37.0 °F 97% 30.36 in 10.0 mi Calm Calm - N/A   Clear
3:51 AM 39.2 °F - 39.2 °F 100% 30.34 in 10.0 mi Calm Calm - N/A   Mostly Cloudy
3:56 AM 39.9 °F - 39.0 °F 97% 30.35 in 10.0 mi Calm Calm - N/A   Mostly Cloudy
4:19 AM 39.2 °F - 39.2 °F 100% 30.35 in 1.8 mi Calm Calm - 0.00 in Rain Light Rain
4:26 AM 37.4 °F - 37.4 °F 100% 30.35 in 3.0 mi Calm Calm - 0.00 in Rain Light Rain
4:52 AM 37.4 °F - 37.4 °F 100% 30.36 in 1.8 mi Calm Calm - 0.00 in   Overcast
4:56 AM 37.9 °F - 37.9 °F 100% 30.37 in 2.0 mi Calm Calm - 0.00 in   Overcast
5:10 AM 37.4 °F - 37.4 °F 100% 30.36 in 10.0 mi Calm Calm - N/A   Scattered Clouds
5:44 AM 39.2 °F - 37.4 °F 93% 30.35 in 10.0 mi Calm Calm - N/A   Mostly Cloudy
5:56 AM 37.0 °F - 36.0 °F 96% 30.36 in 10.0 mi Calm Calm - N/A   Scattered Clouds
6:46 AM 37.4 °F - 37.4 °F 100% 30.36 in 10.0 mi Calm Calm - N/A   Mostly Cloudy
6:56 AM 37.9 °F - 37.9 °F 100% 30.37 in 8.0 mi Calm Calm - N/A   Overcast
7:42 AM 41.0 °F - 39.2 °F 93% 30.37 in 1.8 mi Calm Calm - N/A   Overcast
7:47 AM 42.8 °F - 42.8 °F 100% 30.37 in 0.8 mi Calm Calm - N/A   Overcast
7:53 AM 42.8 °F - 42.8 °F 100% 30.37 in 1.2 mi Calm Calm - N/A   Overcast
7:56 AM 43.0 °F - 43.0 °F 100% 30.38 in 2.0 mi Calm Calm - N/A   Overcast
8:02 AM 44.6 °F 43.1 °F 44.6 °F 100% 30.37 in 1.0 mi WNW 3.5 mph - N/A   Overcast
8:09 AM 44.6 °F 43.1 °F 44.6 °F 100% 30.38 in 0.5 mi West 3.5 mph - N/A Fog Fog
8:14 AM 44.6 °F 43.1 °F 44.6 °F 100% 30.38 in 1.0 mi West 3.5 mph - N/A   Overcast
8:30 AM 44.6 °F 42.2 °F 44.6 °F 100% 30.38 in 2.5 mi SW 4.6 mph - N/A   Overcast
8:42 AM 46.4 °F - 44.6 °F 93% 30.38 in 10.0 mi Calm Calm - N/A   Mostly Cloudy
8:52 AM 46.4 °F 45.2 °F 44.6 °F 93% 30.38 in 10.0 mi SW 3.5 mph - N/A   Scattered Clouds
8:56 AM 46.9 °F - 44.1 °F 90% 30.39 in 10.0 mi WSW 3.5 mph - N/A   Scattered Clouds
9:56 AM 53.1 °F - 44.1 °F 71% 30.39 in 10.0 mi SSW 4.6 mph - N/A   Clear
10:56 AM 59.0 °F - 43.0 °F 55% 30.38 in 10.0 mi SW 3.5 mph - N/A   Clear
11:56 AM 62.1 °F - 44.1 °F 52% 30.36 in 10.0 mi SW 5.8 mph - N/A   Clear
12:56 PM 64.0 °F - 42.1 °F 45% 30.32 in 10.0 mi South 3.5 mph - N/A   Clear
1:56 PM 66.0 °F - 37.9 °F 36% 30.31 in 10.0 mi Variable 5.8 mph - N/A   Clear
2:56 PM 68.0 °F - 37.0 °F 32% 30.30 in 10.0 mi WSW 3.5 mph - N/A   Clear
3:56 PM 68.0 °F - 39.9 °F 36% 30.29 in 10.0 mi WSW 4.6 mph - N/A   Clear
4:56 PM 69.1 °F - 42.1 °F 38% 30.28 in 10.0 mi Variable 3.5 mph - N/A   Clear
5:56 PM 66.9 °F - 46.0 °F 47% 30.27 in 10.0 mi Calm Calm - N/A   Clear
7:56 PM 53.1 °F - 48.0 °F 83% 30.28 in 10.0 mi Calm Calm - N/A   Clear
8:56 PM 51.1 °F - 46.9 °F 86% 30.27 in 10.0 mi Calm Calm - N/A   Clear
9:56 PM 50.0 °F - 46.9 °F 89% 30.26 in 10.0 mi Calm Calm - N/A   Clear
10:56 PM 46.9 °F - 44.1 °F 90% 30.25 in 10.0 mi Calm Calm - N/A   Clear
11:56 PM 46.9 °F - 44.1 °F 90% 30.25 in 10.0 mi WSW 3.5 mph - N/A   Clear